Regional Weather Roundup
Issued by NWS

Home | Current Version | Previous Version | Graphics & Text | Print | Product List | Glossary On
Versions: 1 2 3 4 5 6 7 8 9 10 11 12 13 14 15 16 17 18 19 20 21 22 23 24 25 26 27 28 29 30 31 32 33 34 35 36 37 38 39 40 41 42 43 44 45 46 47 48 49 50
000
ASUS43 KMKX 301511
RWRWI

WISCONSIN REGIONAL WEATHER ROUNDUP
NATIONAL WEATHER SERVICE MILWAUKEE/SULLIVAN WI
1000 AM CDT THU MAR 30 2017

NOTE: "FAIR" INDICATES FEW OR NO CLOUDS BELOW 12,000 FEET WITH NO
SIGNIFICANT WEATHER AND/OR OBSTRUCTIONS TO VISIBILITY.

WIZ001-002-006>008-014>016-023>028-301600-
NORTHWEST WISCONSIN

CITY           SKY/WX    TMP DP  RH WIND       PRES   REMARKS
SUPERIOR ARPT  CLOUDY    36  33  90 NE10G18   30.03F WCI  28
ASHLAND        CLOUDY    37  33  85 VRB6      30.02F WCI  32
HAYWARD        CLOUDY    41  29  62 E12       29.96F
SIREN          CLOUDY    40  29  64 CALM      29.96S
CUMBERLAND     CLOUDY    37  32  81 E8        29.93F WCI  31
RICE LAKE      CLOUDY    39  33  79 E5G17     29.95F
CHETEK         CLOUDY    37  33  82 E7        29.94F WCI  32
LADYSMITH      CLOUDY    38  32  81 E13G18    29.96F WCI  30
EAU CLAIRE     CLOUDY    38  34  85 E17G24    29.92F WCI  28
MENOMONIE      CLOUDY    38  35  87 E16       29.91F WCI  29
NEW RICHMOND   CLOUDY    39  32  76 E14       29.92F WCI  31
OSCEOLA        CLOUDY    41  33  73 E13       29.96S
$$

WIZ003>005-009-010-017-018-301600-
NORTH CENTRAL WISCONSIN

CITY           SKY/WX    TMP DP  RH WIND       PRES   REMARKS
MANITOWISH WTR CLOUDY    36  28  74 E6        29.98F WCI  31
ARBOR VITAE    CLOUDY    37  30  76 E6        29.98S WCI  32
WOODRUFF       CLOUDY    37  30  76 E6        29.98S WCI  32
RHINELANDER    CLOUDY    36  27  69 E13       29.98F WCI  27
EAGLE RIVER    FLURRIES  35  25  66 E8        29.99F WCI  29
LAND O LAKES   CLOUDY    34  24  66 E7        30.01F WCI  28
PHILLIPS       CLOUDY    36  31  83 E8        29.96F WCI  29
TOMAHAWK       CLOUDY    35  31  86 E8        29.97F WCI  28
MEDFORD        CLOUDY    34  32  91 E13       29.93F WCI  25
MERRILL        CLOUDY    36  32  86 E13       29.96F WCI  27
$$

WIZ029-030-035-036-043>047-301600-
CENTRAL WISCONSIN

CITY           SKY/WX    TMP DP  RH WIND       PRES   REMARKS
WAUSAU         CLOUDY    34  32  92 E10       29.94F WCI  26
MOSINEE        CLOUDY    34  34 100 E14G21    29.95F WCI  24
MARSHFIELD     CLOUDY    34  32  92 E16       29.91F WCI  24
STEVENS POINT  CLOUDY    32  32 100 E15G22    29.94F WCI  22
WAUPACA        LGT SNOW  35  33  92 NE10      29.95F WCI  28
WAUTOMA        LGT RAIN  35  34  96 NE15G23   29.90F WCI  25
WISC RAPIDS    CLOUDY    36  35  96 E16G23    29.93F WCI  26
CAMP DOUGLAS   LGT RAIN  37  36  93 E15       29.86F FOG     WCI  28
$$

WIZ011>013-019>022-031-037>040-048>050-301600-
NORTHEAST WISCONSIN

CITY           SKY/WX    TMP DP  RH WIND       PRES   REMARKS
ANTIGO         CLOUDY    32  31  93 E13       29.97F WCI  23
SHAWANO        LGT SNOW  35  32  91 NE14      30.00F WCI  25
OCONTO         CLOUDY    32  32  99 NE9       30.01F WCI  24
STURGEON BAY   LGT SNOW  33  31  92 NE10      30.02F FOG     WCI  25
GREEN BAY      LGT SNOW  34  34 100 NE16      29.98F FOG     WCI  24
MANITOWOC      RAIN      36  34  92 NE10      29.96F WCI  28
APPLETON       LGT SNOW  34  34 100 NE14G21   29.93F WCI  24
CLINTONVILLE   CLOUDY    32  32 100 E12G20    29.98S WCI  23
OSHKOSH        LGT SNOW  34  32  92 NE16      29.90F FOG     WCI  24
$$

WIZ032>034-041-042-053>061-301600-
SOUTHWEST WISCONSIN

CITY           SKY/WX    TMP DP  RH WIND       PRES   REMARKS
LA CROSSE      CLOUDY    40  36  86 E13G20    29.86F WCI  32
SPARTA         LGT RAIN  37  36  96 E16G23    29.87F WCI  27
VIROQUA        CLOUDY    36  35  98 E18G24    29.81F WCI  25
BOSCOBEL       LGT RAIN  39  37  92 NE10G17   29.79F WCI  32
PRAIRIE DU CHI RAIN      38  37  97 NE10      29.79S WCI  31
PLATTEVILLE    CLOUDY    39  39 100 NE18G24   29.74F WCI  29
$$

WIZ056-057-062-063-064-067-068-301600-
SOUTH CENTRAL WISCONSIN

CITY           SKY/WX    TMP DP  RH WIND       PRES   REMARKS
REEDSBURG      LGT RAIN  35  35 100 E9G20     29.84F WCI  27
BARABOO/DELLS  DRIZZLE   36  34  93 NE13G21   29.84F WCI  27
LONE ROCK      LGT RAIN  38  34  85 NE14      29.80F FOG     WCI  30
MINERAL POINT  LGT RAIN  37  37 100 NE17G24   29.75S WCI  28
MADISON        LGT RAIN  37  35  92 NE16G24   29.80F WCI  28
MIDDLETON      CLOUDY    38  38 100 E14G20    29.80F WCI  30
WATERTOWN      LGT RAIN  37  37 100 E17       29.81F WCI  27
MONROE         LGT RAIN  37  36  93 NE15G22   29.73F WCI  28
JANESVILLE     LGT RAIN  39  39 100 E17G23    29.77F WCI  30
$$

WIZ051-052-058>065-066-070>072-301600-
SOUTHEAST WISCONSIN

CITY           SKY/WX    TMP DP  RH WIND       PRES   REMARKS
MILWAUKEE      LGT RAIN  38  35  89 NE15      29.83F WCI  29
WAUKESHA       LGT RAIN  34  34 100 NE17G29   29.83F FOG     WCI  23
MILWAUKEE/TIMM DRIZZLE   36  34  93 NE15G21   29.86F WCI  26
RACINE         LGT RAIN  39  36  89 NE12      29.83F FOG     WCI  32
KENOSHA        LGT RAIN  39  38  96 NE12      29.82R FOG     WCI  32
FOND DU LAC    RAIN      38  34  85 E13G20    29.89F WCI  30
SHEBOYGAN      LGT RAIN  37  34  89 NE18G24   29.91F WCI  27
WEST BEND      LGT RAIN  36  36 100 E18G24    29.87F WCI  25
JUNEAU         LGT RAIN  35  34  95 NE18G25   29.85F WCI  25
$$

LSZ147-162-301600-
LAKE SUPERIOR

STATION/POSITION TIME  TEMP    WIND        PRES    WAVE
                       AIR SEA DIR/SP/G            HT/PER
                 (UTC) (F)     (DEG/KT/KT) (MB)    (FT/S)
DEVILS ISLAND    1400   35      80/ 12/ 13 1018.4F
PORT WING        1440   35      30/ 10/ 11 1016.9F
SAXON HARBOR     1440   35      CALM  /  2 1016.3F
$$

LMZ867-665-643>646-301600-
LAKE MICHIGAN

STATION/POSITION TIME  TEMP    WIND        PRES    WAVE
                       AIR SEA DIR/SP/G            HT/PER
                 (UTC) (F)     (DEG/KT/KT) (MB)    (FT/S)
CHAMBERS ISLAND  1440   32      40/ 10/ 12 1017.3F
NORTHPORT PIER   1440   34      80/ 12/ 14 1017.9F
SISTER BAY       1236   36     110/  8/ 14   N/A
KEWAUNEE LAKESHO 1448   35      50/ 11/ 15 1015.1F
SHEBOYGAN LAKESH 1500   37      50/ 20/ 24 1013.2F
PORT WASHINGTON  1440   38      60/ 13/ 18 1013.5F
MILWAUKEE LAKESH 1450   37      50/ 17/ 20   N/A
KENOSHA   LAKESH 1500   39      70/  6/ 16 1010.2
$$

TC  - TEMPERATURE IN CELSIUS
VSB - VISIBILITY IN STATUTE MILES
WCI - WIND CHILL INDEX
HX  - HEAT INDEX





USA.gov is the U.S. government's official web portal to all federal, state and local government web resources and services.